Weather History for KLKV - January, 2013

Change the Weather History Date:

Wednesday, January 16, 2013

  Actual Average Record
Temperature  
Mean Temperature 6 °F -  
Max Temperature 19 °F 39 °F 57 °F (2014)
Min Temperature -7 °F 24 °F -7 °F (2013)
Degree Days  
Heating Degree Days 59    
Moisture  
Dew Point -22 °F    
Average Humidity 36    
Maximum Humidity 100    
Minimum Humidity 13    
Precipitation  
Precipitation 0.00 in - - ()
Sea Level Pressure  
Sea Level Pressure 30.55 in    
Wind  
Wind Speed 2 mph (North)    
Max Wind Speed 7 mph    
Max Gust Speed -    
Visibility 9 miles    
Events      
Averages and records for this station are not official NWS values.
T = Trace of Precipitation, MM = Missing Value Source: NWS Daily Summary

Daily Weather History Graph

Daily Weather History Graph

Search for Another Location

Airport or City:

Trip Planner

Search our weather history database for the weather conditions in past years. The results will help you decide how hot, cold, wet, or windy it might be!

Date:

Astronomy

Jan. 16, 2013 Rise Set
Actual Time 7:26 AM PST 4:56 PM PST
Civil Twilight 6:56 AM PST 5:27 PM PST
Nautical Twilight 6:21 AM PST 6:01 PM PST
Astronomical Twilight 5:48 AM PST 6:35 PM PST
Moon 9:59 AM PST (1/16) 11:00 PM PST (1/16)
Length of Visible Light 10h 31m
Length of Day
9h 29m
Waxing Crescent, 29% of the Moon is Illuminated
Jan 16
Waxing Crescent
Jan 18
First Quarter
Jan 26
Full
Feb 3
Last Quarter
Feb 9
New

Hourly Weather History & Observations

Time (PST) Temp. Windchill Dew Point Humidity Pressure Visibility Wind Dir Wind Speed Gust Speed Precip Events Conditions
12:15 AM -5.8 °F - -14.8 °F 65% 30.59 in 10.0 mi Calm Calm - N/A   Clear
12:35 AM -7.6 °F -18.8 °F -18.4 °F 59% 30.59 in 10.0 mi NW 4.6 mph - N/A   Clear
12:55 AM -5.8 °F -14.5 °F -14.8 °F 65% 30.59 in 10.0 mi NW 3.5 mph - N/A   Clear
1:15 AM -4.0 °F -16.3 °F -16.6 °F 55% 30.59 in 10.0 mi SW 5.8 mph - N/A   Clear
1:35 AM -7.6 °F -16.5 °F -20.2 °F 54% 30.60 in 10.0 mi SE 3.5 mph - N/A   Clear
1:55 AM -7.6 °F -20.6 °F -14.8 °F 71% 30.61 in 10.0 mi SE 5.8 mph - N/A   Clear
2:15 AM -7.6 °F -16.5 °F -14.8 °F 71% 30.61 in 5.0 mi ESE 3.5 mph - N/A   Clear
2:35 AM -7.6 °F - -18.4 °F 59% 30.61 in 9.0 mi Calm Calm - N/A   Mostly Cloudy
2:55 AM -7.6 °F - -18.4 °F 59% 30.61 in 0.2 mi Calm Calm - N/A   Overcast
3:15 AM -7.6 °F -16.5 °F -18.4 °F 59% 30.61 in 4.0 mi NNE 3.5 mph - N/A   Mostly Cloudy
3:35 AM -7.6 °F -16.5 °F -23.8 °F 45% 30.60 in 5.0 mi NNW 3.5 mph - N/A   Overcast
3:55 AM -7.6 °F - -23.8 °F 45% 30.59 in 10.0 mi Calm Calm - N/A   Scattered Clouds
4:35 AM -7.6 °F -16.5 °F -14.8 °F 71% 30.59 in 10.0 mi NNW 3.5 mph - N/A   Clear
4:55 AM -7.6 °F - -9.4 °F 92% 30.59 in 10.0 mi Calm Calm - N/A   Clear
5:15 AM -7.6 °F - -7.6 °F 100% 30.58 in 10.0 mi Calm Calm - N/A   Clear
5:35 AM -7.6 °F -16.5 °F - N/A% 30.57 in 10.0 mi North 3.5 mph - N/A   Clear
5:55 AM -7.6 °F -16.5 °F - N/A% 30.57 in 10.0 mi NNW 3.5 mph - N/A   Clear
6:15 AM -7.6 °F - - N/A% 30.57 in 10.0 mi Calm Calm - N/A   Clear
6:35 AM -7.6 °F - - N/A% 30.57 in 10.0 mi Calm Calm - N/A   Clear
6:55 AM -7.6 °F - - N/A% 30.58 in 10.0 mi Calm Calm - N/A   Clear
7:15 AM -7.6 °F - - N/A% 30.58 in 10.0 mi Calm Calm - N/A   Clear
7:35 AM -7.6 °F - - N/A% 30.58 in 10.0 mi Calm Calm - N/A   Clear
7:55 AM -7.6 °F - - N/A% 30.59 in 10.0 mi Calm Calm - N/A   Mostly Cloudy
8:15 AM -2.2 °F -12.5 °F - N/A% 30.59 in 10.0 mi North 4.6 mph - N/A   Mostly Cloudy
8:35 AM -2.2 °F - - N/A% 30.59 in 10.0 mi Calm Calm - N/A   Scattered Clouds
8:55 AM -5.8 °F - - N/A% 30.60 in 10.0 mi Calm Calm - N/A   Clear
9:15 AM -0.4 °F - - N/A% 30.61 in 10.0 mi Calm Calm - N/A   Clear
9:35 AM -2.2 °F - - N/A% 30.61 in 10.0 mi Calm Calm - N/A   Clear
9:55 AM -0.4 °F - - N/A% 30.61 in 10.0 mi Calm Calm - N/A   Clear
10:15 AM 6.8 °F - -32.8 °F 15% 30.61 in 10.0 mi Calm Calm - N/A   Clear
10:35 AM 6.8 °F -2.0 °F -31.0 °F 16% 30.61 in 10.0 mi SE 4.6 mph - N/A   Clear
11:15 AM 12.2 °F - -29.2 °F 14% 30.59 in 7.0 mi Calm Calm - N/A   Clear
11:35 AM 8.6 °F - -27.4 °F 18% 30.58 in 9.0 mi Calm Calm - N/A   Clear
12:15 PM 19.4 °F - -23.8 °F 14% 30.56 in 10.0 mi Calm Calm - N/A   Clear
12:35 PM 15.8 °F 8.6 °F -23.8 °F 16% 30.55 in 10.0 mi SSE 4.6 mph - N/A   Clear
12:55 PM 17.6 °F - -25.6 °F 13% 30.54 in 9.0 mi Calm Calm - N/A   Clear
1:15 PM 19.4 °F - -23.8 °F 14% 30.53 in 10.0 mi Calm Calm - N/A   Clear
1:35 PM 19.4 °F - -22.0 °F 15% 30.52 in 10.0 mi Calm Calm - N/A   Clear
1:55 PM 15.8 °F 8.6 °F -23.8 °F 16% 30.52 in 10.0 mi SE 4.6 mph - N/A   Clear
2:15 PM 14.0 °F 8.2 °F -25.6 °F 16% 30.51 in 10.0 mi SE 3.5 mph - N/A   Clear
2:35 PM 17.6 °F 10.7 °F -23.8 °F 15% 30.51 in 10.0 mi South 4.6 mph - N/A   Clear
2:55 PM 17.6 °F 12.3 °F -23.8 °F 15% 30.51 in 10.0 mi South 3.5 mph - N/A   Clear
3:15 PM 15.8 °F - -25.6 °F 14% 30.51 in 10.0 mi Calm Calm - N/A   Clear
3:55 PM 15.8 °F - -25.6 °F 14% 30.51 in 10.0 mi Calm Calm - N/A   Clear
4:15 PM 19.4 °F - -23.8 °F 14% 30.51 in 10.0 mi Calm Calm - N/A   Clear
4:35 PM 15.8 °F - -25.6 °F 14% 30.52 in 10.0 mi Calm Calm - N/A   Clear
4:55 PM 14.0 °F - -25.6 °F 16% 30.51 in 10.0 mi Calm Calm - N/A   Clear
5:15 PM 8.6 °F - -29.2 °F 16% 30.51 in 10.0 mi Calm Calm - N/A   Clear
5:35 PM 6.8 °F - -31.0 °F 16% 30.51 in 10.0 mi Calm Calm - N/A   Clear
5:55 PM 3.2 °F - - N/A% 30.51 in 10.0 mi Calm Calm - N/A   Clear
6:15 PM 3.2 °F - - N/A% 30.51 in 10.0 mi Calm Calm - N/A   Clear
6:35 PM 1.4 °F -6.2 °F - N/A% 30.51 in 10.0 mi NW 3.5 mph - N/A   Clear
6:55 PM 1.4 °F -6.2 °F - N/A% 30.52 in 10.0 mi North 3.5 mph - N/A   Clear
7:15 PM 1.4 °F - - N/A% 30.52 in 9.0 mi Calm Calm - N/A   Clear
7:35 PM -0.4 °F - - N/A% 30.51 in 10.0 mi Calm Calm - N/A   Clear
7:55 PM -2.2 °F - - N/A% 30.52 in 10.0 mi Calm Calm - N/A   Clear
8:15 PM -2.2 °F - - N/A% 30.51 in 10.0 mi Calm Calm - N/A   Clear
8:35 PM -2.2 °F - - N/A% 30.51 in 10.0 mi Calm Calm - N/A   Clear
8:55 PM -2.2 °F - - N/A% 30.51 in 10.0 mi Calm Calm - N/A   Partly Cloudy
9:15 PM -2.2 °F - - N/A% 30.51 in 10.0 mi Calm Calm - N/A   Scattered Clouds
9:35 PM -0.4 °F - - N/A% 30.51 in 0.8 mi Calm Calm - N/A   Unknown
9:55 PM -0.4 °F - - N/A% 30.50 in 9.0 mi Calm Calm - N/A   Clear
10:15 PM -2.2 °F - - N/A% 30.50 in 8.0 mi Calm Calm - N/A   Clear
10:35 PM -2.2 °F -10.4 °F - N/A% 30.50 in 10.0 mi NNE 3.5 mph - N/A   Clear
10:55 PM -2.2 °F -15.6 °F - N/A% 30.50 in 10.0 mi North 6.9 mph - N/A   Clear
11:15 PM -2.2 °F -12.5 °F - N/A% 30.50 in 10.0 mi North 4.6 mph - N/A   Clear
11:35 PM -2.2 °F -12.5 °F - N/A% 30.50 in 10.0 mi NNW 4.6 mph - N/A   Clear
11:55 PM -0.4 °F - - N/A% 30.50 in 10.0 mi Calm Calm - N/A   Clear